OBJECT B, 62082

Orbit data source: Space-Track

You're viewing an Uncataloged Satellite

Recently launched and/or uncataloged satellites may have evolving metadata. Metadata may include but not limited to: Owner, Maufacturer, Bus, Motor, and Mission.

OBJECT B, 62082 is a satellite in SSO that was launched on Mon, 25 Nov 2024 UTC via an ELECTRON launch vehicle from the Rocket Lab Launch Complex (RLLC). Unknown objects in Earth's orbit typically refer to objects detected orbiting the Earth but have not yet been identified or cataloged. These objects could be anything from previously untracked satellites, spent rocket stages, debris from satellite collisions, or even natural meteoroids temporarily captured by Earth's gravity.

Loading next visibility...
OBJECT B details
Identifier
62082, 2024-219B
Orbit
SSO
Last TLE update4 hours ago
Origin
Flag of TBDTBD
ManufacturerUnknown
MissionOperational spacecraft
Bus & MotorUnknown
MassUnknown
Launch date (UTC)
2024-11-25 (3 weeks ago)
Launch vehicle
ELECTRON
Launch site
Rocket Lab Launch Complex (RLLC)
Object typeUnknown
Shape & HBRUnknown
Radar Cross SectionMedium (>0.1 m² and <1 m²)

Expand to show TLE details & history

TLE from 4 hours ago
0 OBJECT B
1 62082U 24219B   24348.75332101  .00002976  00000-0  42778-3 0  9994
2 62082  97.9491 147.4382 0001313 355.3216   4.7982 14.77160675  2737
Epoch: 2024-12-13T18:04Z
Definitive object data (Epoch: 2024-12-13T18:04:46.935Z)
Latitude0.00002°
Longitude153.32786°
Altitude640.399 km
Speed7.538 km/s
True Right ascension09h 49m 45s
True Declination0° 00' 00"
Sunlit
Object was in daylight at TLE epoch
Visualization TLE readout
Latitude62.04273°
Longitude-11.34811°
Altitude649.423 km
Speed7.539 km/s
Apparent Right ascension05h 38m 09s
Apparent Declination35° 06' 27"
Sunlit
Object is in daylight
Visualization observer readout
Local Sidereal Time20:23:20
Azimuth32.871° NE
Elevation-5.876°
Doppler factor1
Orbital elements
Apogee altitude636.269 km
Perigee altitude634.427 km
Semi-major axis7,013.485 km
Eccentricity0.0001313
Inclination97.9491°
RAAN147.4382°
Arg. of periapsis355.3216°
True anomaly4.79946°
Mean anomaly4.7982°
Eccentric anomaly4.79883°
Mean motion3.69524 °/min
BSTAR0.00042778
Orbital period97.42 mins
Loading maneuver chart data...
Loading historical data...
Loading historical data...
Loading historical data...
Loading historical data...
Loading historical data...
Loading historical data...
Loading historical data...

OBJECT B Visibility forecast

Observer location: undefined°, undefined

Span
Click to sort rows by Start time (UTC) header in descending order
Start Az.
Max El. time (UTC)
Max El. Az.
Max El.
End time (UTC)
End Az.
8 mins2024-12-13 23:31:31.954Z18.54° NNE2024-12-13 23:35:31.954Z124.34° SE42.917°2024-12-13 23:39:31.954Z185.579° SSW
7 mins2024-12-14 10:28:31.954Z143.57° SSE2024-12-14 10:31:31.954Z65.798° ENE38.532°2024-12-14 10:35:31.954Z357.76° N
|